sat.trackr.live / text

‹ back to catalog

ECHOSTAR 11

NORAD 33207 · 2008-035A

PAYLOAD ACTIVE UNKNOWN

§ Identity

Operator
Country
US
Launch date
2008-07-16
Launch site
SEAL
Launch vehicle
Mass (kg)
RCS (m²)
32.41

Purposes: comms

External: N2YO · Heavens-Above · Gunter

§ Orbital elements

Epoch: 2026-09-15T14:27:39.413664Z

Period
1,436.08 min
Inclination
1.2326°
Eccentricity
0.0002617
Mean motion
1.00272791 rev/d
Perigee alt
35,775.3 km
Apogee alt
35,797.3 km
Semi-major
42,164.4 km
B*
0.0000e+0
RAAN
82.9722°
Arg perigee
110.5324°
Mean anomaly
268.1820°
Rev number
5,212

§ Raw data

ECHOSTAR 111 33207U 08035A   26258.60253951 -.00000064  00000+0  00000+0 0  99942 33207   1.2326  82.9722 0002617 110.5324 268.1820  1.00272791 52129

JSON: /api/v1/satellites/33207 · /tle

For live sub-satellite position, see the globe view (requires WebGL).

§ Visibility from observer

Set your observer location to see the next 7 days of passes ≥ 10°. The values pass through the URL so the page stays shareable.

No JS? Fill the form by hand. The geolocation button needs JavaScript.